Location: Edemissen
(51.7689°N, 9.8634°E)
Time: 20:55:14
(UTC+00:00)

NORSAT 1 - Visible Passes

Search period start: 13 April 2026 00:00
Search period end: 23 April 2026 00:00
Orbit: 522 x 530 km, 97.4° (Epoch: 12 April)

Date Brightness Start Highest point End Pass type
(mag) Time Alt. Az. Time Alt. Az. Time Alt. Az.
13 Apr ? 02:23:38 10° ESE 02:26:41 23° ENE 02:29:45 10° N visible
14 Apr ? 02:12:27 10° ESE 02:15:09 19° ENE 02:17:52 10° NNE visible
14 Apr ? 03:45:22 10° S 03:49:06 52° W 03:52:52 10° NNW visible
15 Apr ? 02:01:25 10° E 02:03:38 15° ENE 02:05:51 10° NNE visible
15 Apr ? 03:33:37 10° S 03:37:25 70° WSW 03:41:17 10° NNW visible
16 Apr ? 01:50:37 10° E 01:52:07 12° ENE 01:53:37 10° NNE visible
16 Apr ? 03:21:57 10° SSE 03:25:46 88° ENE 03:29:38 10° NNW visible
17 Apr ? 03:10:19 10° SSE 03:14:07 67° ENE 03:17:57 10° N visible
18 Apr ? 02:58:46 10° SSE 03:02:29 50° ENE 03:06:14 10° N visible
19 Apr ? 02:47:17 10° SE 02:50:51 38° ENE 02:54:28 10° N visible
20 Apr ? 02:35:52 10° SE 02:39:14 30° ENE 02:42:37 10° N visible
21 Apr ? 02:24:31 10° ESE 02:27:37 24° ENE 02:30:44 10° N visible
22 Apr ? 02:13:17 10° ESE 02:16:02 19° ENE 02:18:47 10° NNE visible
